F6JSP-13 Weather Reports


time (UTC)temp
C
wind
direction
speed
KPH
gust
KPH
rain 1hr
cm
rain 24hr
cm
rain mn
cm
humidity
%
barometer
mb
20260506073005 10 4 6.4 16.1 0.08 3.76 0.20 99 1007.7
20260506072505 10 5 8.0 16.1 0.05 3.76 0.20 99 1007.6
20260506072005 10 7 8.0 19.3 0.05 3.76 0.18 99 1007.4
20260506071504 9 358 6.4 20.9 0.05 3.76 0.18 99 1007.6
20260506071005 9 3 8.0 14.5 0.05 3.78 0.18 99 1007.4
20260506070505 9 11 4.8 14.5 0.05 3.78 0.18 99 1007.2
20260506062505 10 10 9.7 19.3 0.08 3.96 0.15 99 1006.7
20260506062004 10 2 8.0 19.3 0.05 3.96 0.13 99 1006.9
20260506061505 10 5 8.0 19.3 0.05 3.96 0.13 99 1006.8
20260506061005 10 358 6.4 16.1 0.08 3.99 0.13 99 1006.8
20260506060505 10 1 4.8 19.3 0.08 4.01 0.13 99 1006.8
20260506051004 10 9 8.0 12.9 0.05 3.96 0.05 99 1006.5
20260506050505 10 24 1.6 9.7 0.05 3.96 0.05 99 1006.2
20260506045005 10 0 4.8 12.9 0.00 3.94 0.03 99 1006.6
20260506044505 10 0 4.8 12.9 0.00 3.94 0.03 99 1006.6
20260506044005 10 11 4.8 12.9 0.00 3.91 0.00 99 1006.4
20260506043505 10 359 3.2 11.3 0.00 3.91 0.00 99 1006.3
20260506043005 10 350 4.8 9.7 0.00 3.91 0.00 99 1006.3
20260506042504 10 359 4.8 12.9 0.00 3.91 0.00 99 1006.3
20260506042005 10 6 4.8 12.9 0.00 3.91 0.00 99 1006.2
20260506041505 10 0 4.8 11.3 0.00 3.91 0.00 99 1006.4
20260506041005 10 352 6.4 16.1 0.00 3.91 0.00 99 1006.2
20260506040505 10 353 8.0 14.5 0.00 3.91 0.00 99 1006.5
20260506040005 10 354 4.8 11.3 0.00 3.91 0.00 99 1006.1
20260506035504 10 2 4.8 11.3 0.00 3.91 0.00 99 1006.3
20260506035006 10 351 4.8 11.3 0.00 3.91 0.00 99 1006.3
20260506033505 10 352 4.8 12.9 0.00 3.91 0.00 99 1006.5
20260506033006 10 351 4.8 9.7 0.00 3.91 0.00 99 1006.2
20260506032505 10 350 3.2 8.0 0.00 3.91 0.00 99 1006.3
20260506031505 10 351 3.2 12.9 0.00 3.91 0.00 99 1006.4
20260506031004 10 357 4.8 11.3 0.00 3.91 0.00 99 1006.5
20260506030505 10 350 6.4 12.9 0.00 3.91 0.00 99 1006.5
20260506030005 10 344 4.8 12.9 0.00 3.91 0.00 99 1006.5
20260506025505 10 348 4.8 11.3 0.00 3.91 0.00 99 1006.5
20260506025005 10 356 3.2 11.3 0.00 3.91 0.00 99 1006.5
20260506024505 10 358 3.2 11.3 0.00 3.91 0.00 99 1006.5
20260506024005 10 345 4.8 14.5 0.00 3.91 0.00 99 1006.5
20260506023504 10 342 4.8 9.7 0.00 3.91 0.00 99 1006.4
20260506023006 10 341 4.8 11.3 0.00 3.91 0.00 99 1006.6
20260506022505 10 3 3.2 11.3 0.00 3.94 0.00 99 1006.4
20260506022005 10 356 4.8 14.5 0.00 3.94 0.00 99 1006.5
20260506021505 10 356 3.2 11.3 0.00 3.94 0.00 99 1006.6
20260506021005 10 331 4.8 9.7 0.00 3.94 0.00 99 1006.6
20260506020504 10 341 4.8 9.7 0.00 3.96 0.00 99 1006.6
20260506020005 10 329 1.6 12.9 0.00 3.99 0.00 99 1006.4
20260506015504 10 355 3.2 11.3 0.00 4.01 0.00 99 1006.5
20260506015005 10 346 4.8 9.7 0.00 4.06 0.00 99 1006.6
20260506014505 10 349 3.2 9.7 0.00 4.06 0.00 99 1006.5
20260506014006 10 339 3.2 12.9 0.00 4.09 0.00 99 1006.4
20260506013504 10 355 4.8 19.3 0.00 4.11 0.00 99 1006.2
20260506013005 10 339 3.2 9.7 0.00 4.11 0.00 99 1006.5
20260506012505 10 342 3.2 12.9 0.00 4.14 0.00 99 1006.4
20260506012005 10 342 4.8 12.9 0.00 4.14 0.00 99 1006.3
20260506011504 10 339 4.8 12.9 0.00 4.14 0.00 99 1006.5
20260506010505 10 343 4.8 12.9 0.00 4.24 0.00 99 1006.6
20260506010005 10 346 3.2 11.3 0.00 4.27 0.00 99 1006.9
20260506005504 10 343 3.2 9.7 0.00 4.29 0.00 99 1006.8
20260506005006 10 342 3.2 11.3 0.00 4.34 0.00 99 1006.8
20260506004505 10 353 3.2 8.0 0.00 4.37 0.00 99 1006.8
20260506003505 10 331 3.2 8.0 0.00 4.45 0.00 99 1006.8
20260506003005 10 331 3.2 8.0 0.00 4.47 0.00 99 1006.8
20260506002005 10 348 3.2 11.3 0.00 4.50 0.00 99 1006.9
20260506001505 10 291 3.2 8.0 0.00 4.52 0.00 99 1007.0
20260506001004 10 310 1.6 8.0 0.00 4.55 0.00 99 1007.2
20260506000505 10 346 3.2 9.7 0.00 4.55 0.00 99 1007.0
20260506000005 10 341 3.2 9.7 0.00 4.55 0.00 99 1007.0
20260505235505 10 345 6.4 11.3 0.00 4.57 0.00 99 1007.0
20260505235005 10 351 4.8 11.3 0.00 4.60 0.00 99 1007.1
20260505234004 10 0 3.2 9.7 0.00 4.65 0.00 99 1007.0
20260505233505 10 358 3.2 11.3 0.00 4.65 0.00 99 1006.9
20260505233005 10 1 4.8 14.5 0.00 4.65 0.00 99 1007.1
20260505232504 10 1 6.4 12.9 0.00 4.65 0.00 99 1007.0
20260505232005 10 352 6.4 14.5 0.00 4.65 0.00 99 1007.1
20260505231505 10 0 3.2 11.3 0.00 4.65 0.00 99 1007.1
20260505231004 10 348 3.2 8.0 0.00 4.65 0.00 99 1007.2
20260505230005 10 358 3.2 9.7 2.31 4.65 2.31 99 1007.2
20260505225505 10 3 4.8 11.3 0.00 4.67 2.31 99 1007.2
20260505225005 10 4 4.8 12.9 0.00 4.70 2.31 99 1006.9
20260505224504 10 350 4.8 12.9 0.00 4.70 2.31 99 1007.1
20260505224005 10 2 6.4 11.3 0.00 4.70 2.31 99 1007.1
20260505223505 10 26 3.2 9.7 0.00 4.70 2.31 99 1007.2
20260505222505 10 0 4.8 9.7 0.00 4.70 2.31 99 1007.2
20260505222005 10 356 4.8 11.3 0.00 4.70 2.31 99 1007.2
20260505221504 10 357 6.4 14.5 0.00 4.70 2.31 99 1007.1
20260505221005 11 4 8.0 14.5 0.00 4.70 2.31 99 1007.2
20260505220504 11 358 4.8 12.9 0.00 4.70 2.31 99 1007.1
20260505220005 11 352 4.8 11.3 0.00 2.39 0.00 99 1007.2
20260505215505 11 357 8.0 11.3 0.00 2.39 2.31 99 1007.0
20260505215004 11 1 3.2 12.9 0.00 2.39 2.31 99 1007.2
20260505214505 11 356 6.4 12.9 0.00 2.39 2.31 99 1007.1
20260505214005 11 7 4.8 12.9 0.00 2.39 2.31 99 1007.2
20260505213504 11 7 8.0 19.3 0.00 2.39 2.31 99 1007.0
20260505213005 11 350 3.2 14.5 0.03 2.39 2.31 99 1007.2
20260505212505 11 5 6.4 11.3 0.03 2.39 2.31 99 1007.0
20260505212004 11 6 4.8 12.9 0.05 2.39 2.31 99 1007.2
20260505211504 11 349 3.2 9.7 0.08 2.39 2.31 99 1007.1
20260505211005 11 347 4.8 11.3 0.10 2.39 2.31 99 1007.2
20260505210504 11 349 3.2 9.7 0.10 2.39 2.31 99 1007.2
20260505210005 11 358 4.8 12.9 0.10 2.39 2.31 99 1007.1
20260505205504 11 354 6.4 14.5 0.10 2.39 2.31 99 1007.1
20260505204504 11 3 8.0 16.1 0.10 2.36 2.31 99 1007.1
20260505204005 11 2 8.0 16.1 0.13 2.36 2.31 99 1007.0
20260505203505 11 6 4.8 16.1 0.13 2.36 2.31 99 1007.1
20260505203004 11 5 8.0 16.1 0.13 2.36 2.31 99 1006.9
20260505202504 11 14 6.4 12.9 0.13 2.36 2.29 99 1007.1
20260505201505 11 22 6.4 22.5 0.13 2.31 2.26 99 1007.2
20260505200504 11 2 4.8 16.1 0.15 2.29 2.21 99 1007.1
20260505200004 11 23 4.8 11.3 0.18 2.26 2.21 99 1007.0
20260505195004 11 2 8.0 12.9 0.25 2.26 2.21 99 1007.0
20260505194504 12 7 6.4 14.5 0.28 2.26 2.21 99 1007.0
20260505193505 12 6 4.8 9.7 0.28 2.24 2.18 99 1006.8
20260505193005 12 9 3.2 11.3 0.28 2.24 2.16 99 1006.7
20260505192504 12 8 3.2 9.7 0.28 2.21 2.16 99 1006.7
20260505192005 12 26 1.6 11.3 0.30 2.21 2.16 99 1006.6
20260505191504 12 24 3.2 9.7 0.33 2.18 2.11 99 1006.6
20260505191004 12 25 3.2 11.3 0.36 2.16 2.11 99 1006.6
20260505190505 12 8 3.2 9.7 0.36 2.13 2.06 99 1006.6
20260505190005 12 7 3.2 9.7 0.33 2.08 2.03 99 1006.5
20260505185504 12 7 3.2 8.0 0.28 2.03 1.98 99 1006.5
20260505185005 12 40 1.6 8.0 0.25 2.01 1.96 99 1006.4
20260505184505 12 21 3.2 8.0 0.23 1.98 1.93 99 1006.4
20260505184005 12 51 3.2 8.0 0.23 1.98 1.93 99 1006.4
20260505183505 12 24 3.2 11.3 0.23 1.98 1.91 99 1006.3
20260505183004 12 10 4.8 11.3 0.23 1.96 1.91 99 1006.4
20260505182505 12 10 6.4 14.5 0.20 1.96 1.88 99 1006.4
20260505182005 12 3 3.2 8.0 0.18 1.91 1.85 99 1006.3
20260505181506 12 3 3.2 9.7 0.18 1.91 1.85 99 1006.3
20260505181006 12 96 1.6 9.7 0.13 1.85 1.80 99 1006.2
20260505180506 12 15 3.2 11.3 0.08 1.80 1.75 99 1006.3
20260505175005 13 3 3.2 8.0 0.03 1.75 1.70 99 1006.2
20260505173505 13 287 0.0 3.2 0.03 1.75 1.70 99 1006.2
20260505173005 13 3 1.6 3.2 0.03 1.75 1.68 99 1006.1
20260505172506 13 41 3.2 8.0 0.03 1.75 1.68 99 1006.1
20260505172006 13 344 3.2 8.0 0.05 1.75 1.68 99 1006.2
20260505171506 13 334 1.6 4.8 0.05 1.75 1.68 99 1006.4
20260505171006 13 344 1.6 8.0 0.05 1.73 1.68 99 1006.1
20260505170506 13 333 3.2 9.7 0.05 1.73 1.68 99 1006.2
20260505170006 13 343 3.2 9.7 0.08 1.73 1.68 99 1006.1
20260505165506 13 321 1.6 9.7 0.08 1.73 1.65 99 1006.1
20260505165005 13 317 1.6 4.8 0.08 1.73 1.65 99 1006.0
20260505164505 13 314 1.6 8.0 0.08 1.73 1.65 99 1006.0
20260505164005 13 341 3.2 8.0 0.08 1.73 1.65 99 1006.2
20260505163505 13 334 3.2 4.8 0.10 1.73 1.65 99 1006.2
20260505163008 13 343 3.2 8.0 0.10 1.70 1.65 99 1006.3
20260505162505 13 338 4.8 11.3 0.10 1.70 1.65 99 1006.1
20260505162006 13 340 1.6 4.8 0.13 1.70 1.65 99 1006.3
20260505161006 13 336 3.2 4.8 0.15 1.70 1.63 98 1006.0
20260505160505 13 338 3.2 9.7 0.18 1.68 1.63 98 1006.1
20260505153006 12 289 1.6 8.0 0.18 1.63 1.55 99 1006.1
20260505152506 12 292 4.8 11.3 0.15 1.60 1.55 99 1006.1
20260505152006 12 291 6.4 11.3 0.15 1.60 1.52 99 1005.9
20260505151505 13 264 6.4 11.3 0.13 1.55 1.50 98 1006.1
20260505151006 13 281 4.8 9.7 0.10 1.52 1.47 98 1006.1
20260505150505 13 204 4.8 9.7 0.08 1.50 1.45 98 1006.3
20260505140506 13 236 6.4 11.3 0.05 1.42 1.37 99 1006.2
20260505125005 13 259 4.8 9.7 0.03 1.40 1.32 99 1006.4
20260505124005 13 263 6.4 9.7 0.03 1.40 1.32 99 1006.4
20260505123505 13 271 3.2 11.3 0.03 1.40 1.32 99 1006.4
20260505123006 13 278 6.4 12.9 0.03 1.40 1.32 99 1006.3
20260505122005 12 265 4.8 11.3 0.05 1.40 1.32 99 1006.2
20260505121505 12 272 4.8 12.9 0.05 1.40 1.32 99 1006.3
20260505121005 12 271 8.0 14.5 0.05 1.40 1.32 99 1006.4
20260505115505 13 247 4.8 9.7 0.05 1.37 1.32 99 1006.3
20260505115006 12 260 1.6 11.3 0.05 1.37 1.32 99 1006.5
20260505114505 12 280 4.8 12.9 0.05 1.37 1.30 99 1006.3
20260505114005 12 255 6.4 14.5 0.05 1.37 1.30 99 1006.3
20260505113506 12 266 8.0 12.9 0.05 1.37 1.30 99 1006.5
20260505113005 12 284 3.2 11.3 0.05 1.37 1.30 99 1006.3
20260505112505 12 286 6.4 14.5 0.03 1.35 1.30 99 1006.3
20260505112006 12 273 8.0 11.3 0.03 1.35 1.30 99 1006.4
20260505111505 12 274 6.4 16.1 0.03 1.35 1.30 99 1006.5
20260505111005 12 282 8.0 12.9 0.03 1.35 1.27 99 1006.5
20260505110505 12 269 4.8 9.7 0.00 1.32 1.27 99 1006.6
20260505102006 12 275 4.8 8.0 0.03 1.32 1.27 99 1006.5
20260505101006 12 292 6.4 11.3 0.05 1.32 1.27 99 1006.4
20260505100505 12 280 3.2 16.1 0.05 1.32 1.27 99 1006.4
20260505100005 12 287 6.4 11.3 0.05 1.32 1.27 99 1006.5
20260505095505 12 276 4.8 9.7 0.05 1.32 1.24 99 1006.5
20260505095005 12 289 8.0 12.9 0.05 1.32 1.24 99 1006.3
20260505094505 12 284 8.0 16.1 0.05 1.32 1.24 99 1006.3
20260505094005 12 268 8.0 16.1 0.05 1.32 1.24 99 1006.3
20260505093505 12 281 4.8 12.9 0.05 1.32 1.24 99 1006.4
20260505093006 12 284 6.4 12.9 0.05 1.32 1.24 99 1006.5
20260505092505 12 288 4.8 12.9 0.05 1.32 1.24 99 1006.5
20260505091505 12 299 4.8 12.9 0.05 1.30 1.22 99 1006.3
20260505091005 12 293 8.0 11.3 0.03 1.27 1.22 99 1006.4
20260505090505 12 280 3.2 9.7 0.03 1.27 1.22 99 1006.5
20260505090005 12 294 6.4 9.7 0.03 1.27 1.22 99 1006.3
20260505085505 12 277 4.8 11.3 0.00 1.27 1.19 99 1006.4
20260505085005 12 277 3.2 9.7 0.00 1.27 1.19 99 1006.3
20260505084505 12 289 4.8 12.9 0.03 1.27 1.19 99 1006.5
20260505084006 12 295 4.8 12.9 0.03 1.27 1.19 99 1006.2
20260505083505 12 290 6.4 12.9 0.03 1.27 1.19 99 1006.2
20260505083005 12 292 4.8 12.9 0.03 1.24 1.19 99 1006.2
20260505082505 12 291 4.8 11.3 0.03 1.24 1.19 99 1006.2
20260505082005 12 299 4.8 11.3 0.05 1.24 1.19 99 1006.2
20260505081505 12 290 4.8 14.5 0.05 1.24 1.19 99 1006.2
20260505081005 12 300 3.2 12.9 0.08 1.24 1.19 99 1006.2
20260505080005 12 305 4.8 12.9 0.10 1.24 1.19 99 1006.5
20260505074006 12 301 4.8 9.7 0.13 1.24 1.17 99 1006.3
20260505073505 12 295 4.8 12.9 0.13 1.22 1.17 99 1006.4